Inquirer Daily News

Weather

Get conditions and forecasts for any City, State, ZIP code or Country:  
Northeast Philadelphia, PA
on Wednesday, January 30, 2013

Wednesday
Previous Day Next Day
Daily Summary
 ActualAverage (KTTN)Record (KTTN)
Temperature
Mean Temperature °F 32°F  
Max Temperature 66°F 39°F 70°F (1947)
Min Temperature 39°F 24°F -13°F (1873)
Degree Days
Heating Degree Days 12 33  
Month to date heating degree days 1017  
Since 1 July heating degree days 2912  
Cooling Degree Days 0 0  
Month to date cooling degree days 0  
Year to date cooling degree days 0  
Growing Degree Days2 (Base °F )  
Moisture
Dew Point 50°F   
Average Humidity 92    
Maximum Humidity 100    
Minimum Humidity 70    
Precipitation
Precipitation 0.28 in 0.09 in 1.10 in (1939)
Month to date precipitation 3.06  
Year to date precipitation 3.06  
Wind
Wind Speed 5 mph   
Max Wind Speed 17 mph   
Max Gust Speed 32 mph   
Visibility 4 miles   
Events Fog , Rain , Thunderstorm   

Key: T is trace of precipitation, MM is missing value
Source: NWS Daily Summary
Time(EST)TemperatureDew PointHumidity Pressure Visibility Wind DirectionWind SpeedGust SpeedPrecipitationEvents Conditions
12:16 AM 42.8°F 41.0°F 93% 30.06 in 1.0 miles East 3.5 mph - N/A   Overcast
12:46 AM 41.0°F 41.0°F 100% 30.03 in 0.5 miles ESE 4.6 mph - N/A Fog Fog
12:54 AM 42.1°F 41.0°F 96% 30.03 in 0.2 miles East 3.5 mph - N/A Fog Fog
1:47 AM 42.8°F 42.8°F 100% 30.01 in 0.2 miles East 3.5 mph - N/A Fog Fog
1:54 AM 42.1°F 42.1°F 100% 30.01 in 0.2 miles ESE 4.6 mph - N/A Fog Fog
2:15 AM 42.8°F 42.8°F 100% 30.00 in 0.2 miles Calm Calm - N/A Fog Fog
2:54 AM 41.0°F 39.9°F 96% 29.99 in 0.2 miles Calm Calm - N/A Fog Fog
3:08 AM 41.0°F 41.0°F 100% 29.98 in 0.2 miles Calm Calm - N/A Fog Fog
3:33 AM 41.0°F 41.0°F 100% 29.96 in 0.2 miles Calm Calm - N/A Fog Fog
3:54 AM 39.9°F 39.9°F 100% 29.95 in 0.2 miles NE 3.5 mph - N/A Fog Fog
4:13 AM 39.2°F 39.2°F 100% 29.93 in 0.2 miles ENE 3.5 mph - N/A Fog Fog
4:54 AM 39.9°F 39.9°F 100% 29.93 in 0.2 miles Calm Calm - N/A Fog Fog
5:54 AM 42.1°F 41.0°F 96% 29.91 in 0.2 miles East 3.5 mph - N/A Fog Fog
6:40 AM 41.0°F 41.0°F 100% 29.89 in 0.2 miles ENE 3.5 mph - N/A Fog Fog
6:54 AM 42.1°F 41.0°F 96% 29.90 in 0.2 miles NE 4.6 mph - N/A Fog Fog
7:09 AM 41.0°F 41.0°F 100% 29.89 in 0.2 miles NE 4.6 mph - N/A Fog Fog
7:23 AM 39.2°F 39.2°F 100% 29.89 in 0.2 miles NE 4.6 mph - N/A Fog Fog
7:52 AM 41.0°F 41.0°F 100% 29.87 in 0.2 miles East 3.5 mph - N/A Fog Fog
7:54 AM 41.0°F 41.0°F 100% 29.87 in 0.2 miles Calm Calm - N/A Fog Fog
8:22 AM 44.6°F 44.6°F 100% 29.86 in 0.5 miles Calm Calm - N/A Fog Fog
8:42 AM 46.4°F 46.4°F 100% 29.85 in 1.2 miles Calm Calm - N/A   Mostly Cloudy
8:54 AM 46.9°F 46.9°F 100% 29.85 in 1.8 miles Calm Calm - N/A   Mostly Cloudy
9:09 AM 48.2°F 48.2°F 100% 29.84 in 2.0 miles Calm Calm - N/A   Scattered Clouds
9:23 AM 50.0°F 50.0°F 100% 29.84 in 3.0 miles Calm Calm - N/A   Partly Cloudy
9:52 AM 55.4°F 53.6°F 94% 29.83 in 3.0 miles SSW 6.9 mph - N/A   Mostly Cloudy
9:54 AM 55.9°F 53.1°F 90% 29.83 in 3.0 miles SSW 8.1 mph - N/A   Mostly Cloudy
10:51 AM 60.8°F 55.4°F 82% 29.80 in 10.0 miles SSW 11.5 mph 24.2 mph 0.01 in   Overcast
10:54 AM 60.1°F 55.9°F 86% 29.80 in 10.0 miles SSW 12.7 mph 24.2 mph 0.01 in   Overcast
11:54 AM 62.1°F 57.0°F 84% 29.75 in 10.0 miles SSW 16.1 mph 26.5 mph 0.01 in   Overcast
12:08 PM 64.4°F 57.2°F 77% 29.73 in 10.0 miles SSW 17.3 mph 28.8 mph 0.01 in   Overcast
12:54 PM 66.0°F 57.9°F 75% 29.70 in 10.0 miles SSW 13.8 mph 29.9 mph 0.02 in   Overcast
1:54 PM 64.9°F 57.9°F 78% 29.65 in 10.0 miles SSW 13.8 mph 27.6 mph 0.01 in   Overcast
2:54 PM 66.0°F 57.9°F 75% 29.64 in 10.0 miles SSW 15.0 mph 27.6 mph 0.01 in   Overcast
3:54 PM 66.9°F 57.0°F 70% 29.61 in 10.0 miles SSW 13.8 mph 28.8 mph 0.02 in   Overcast
4:54 PM 66.9°F 57.0°F 70% 29.60 in 10.0 miles SSW 9.2 mph 32.2 mph N/A   Overcast
5:54 PM 64.0°F 57.0°F 78% 29.62 in 10.0 miles SW 9.2 mph - 0.01 in Rain Light Rain
6:01 PM 62.6°F 57.2°F 82% 29.61 in 10.0 miles SW 5.8 mph - 0.00 in Rain Light Rain
6:11 PM 62.6°F 57.2°F 82% 29.62 in 10.0 miles West 5.8 mph - 0.00 in Rain Light Rain
6:50 PM 59.0°F 57.2°F 94% 29.60 in 10.0 miles Calm Calm - 0.01 in Rain Light Rain
6:54 PM 59.0°F 57.0°F 93% 29.61 in 10.0 miles SSW 4.6 mph - 0.02 in Rain Light Rain
7:02 PM 59.0°F 57.2°F 94% 29.60 in 10.0 miles South 3.5 mph - 0.00 in Rain Light Rain
7:54 PM 57.9°F 57.0°F 97% 29.55 in 6.0 miles SE 4.6 mph - 0.00 in   Overcast
8:54 PM 60.1°F 55.9°F 86% 29.50 in 10.0 miles South 9.2 mph - N/A   Overcast
9:54 PM 62.1°F 57.0°F 84% 29.45 in 10.0 miles SSW 13.8 mph 21.9 mph N/A   Overcast
10:54 PM 60.1°F 57.0°F 90% 29.43 in 5.0 miles SW 12.7 mph 25.3 mph 0.02 in Rain Light Rain
11:05 PM 60.8°F 57.2°F 88% 29.42 in 5.0 miles SSW 12.7 mph - 0.01 in Rain Light Rain
11:13 PM 59.0°F 57.2°F 94% 29.41 in 3.0 miles SSW 9.2 mph - 0.01 in Rain Light Rain
11:31 PM 57.2°F 57.2°F 100% 29.39 in 2.5 miles SSW 6.9 mph - 0.08 in Rain , Thunderstorm Heavy Rain
11:43 PM 57.2°F 57.2°F 100% 29.38 in 4.0 miles Variable 6.9 mph - 0.11 in Rain , Thunderstorm Rain
11:54 PM 57.9°F 57.0°F 97% 29.36 in 3.0 miles Variable 5.8 mph - 0.15 in Rain , Thunderstorm Rain
Astronomy
Sunrise:07:10 AM (EST) Moon Rise:09:13 PM (EST)1/30
Sunset:05:16 PM (EST) Moon Set:08:36 AM (EST)1/30
Moon Phase
Jan. 30 Feb. 03 Feb. 10 Feb. 17 Feb. 25

Copyright © 2014 The Weather Underground, Inc.